This is the latest recevied weather packets stored in our database for station/object W0SS-13. If no packets are shown the sender has not sent any weather packets the latest 10 day(s).
| Time | Temp. | Humidity | Pressure | Rain* | Wind** | Luminosity | Snow |
|---|---|---|---|---|---|---|---|
| 1777625013 | 3.89° C | 84% | 1020 hPa | 0 mm | - | 0 W/m² | - |
| 1777624710 | 3.89° C | 84% | 1019.9 hPa | 0 mm | - | 0 W/m² | - |
| 1777624405 | 4.44° C | 84% | 1020 hPa | 0 mm | - | 0 W/m² | - |
| 1777624103 | 4.44° C | 83% | 1020.2 hPa | 0 mm | - | 0 W/m² | - |
| 1777623799 | 5° C | 82% | 1020.2 hPa | 0 mm | - | 0 W/m² | - |
| 1777623496 | 5° C | 81% | 1020.2 hPa | 0 mm | - | 0 W/m² | - |
| 1777623194 | 5° C | 80% | 1020.2 hPa | 0 mm | - | 0 W/m² | - |
| 1777622891 | 5° C | 79% | 1020.3 hPa | 0 mm | - | 0 W/m² | - |
| 1777622586 | 5° C | 78% | 1020.3 hPa | 0 mm | - | 0 W/m² | - |
| 1777622283 | 5.56° C | 76% | 1020.2 hPa | 0 mm | - | 0 W/m² | - |
| 1777621980 | 6.11° C | 75% | 1020.4 hPa | 0 mm | - | 0 W/m² | - |
| 1777621675 | 6.67° C | 73% | 1020.7 hPa | 0 mm | - | 0 W/m² | - |
| 1777621372 | 7.22° C | 71% | 1020.7 hPa | 0 mm | - | 0 W/m² | - |
| 1777621067 | 7.22° C | 70% | 1020.5 hPa | 0 mm | - | 0 W/m² | - |
| 1777620763 | 7.78° C | 69% | 1020.7 hPa | 0 mm | - | 0 W/m² | - |
| 1777620460 | 7.78° C | 69% | 1020.6 hPa | 0 mm | - | 0 W/m² | - |
| 1777620157 | 7.78° C | 68% | 1020.6 hPa | 0 mm | - | 0 W/m² | - |
| 1777619853 | 7.78° C | 68% | 1020.7 hPa | 0 mm | - | 0 W/m² | - |
| 1777619550 | 7.78° C | 68% | 1020.6 hPa | 0 mm | - | 0 W/m² | - |
| 1777619245 | 8.33° C | 68% | 1020.5 hPa | 0 mm | - | 0 W/m² | - |
| 1777618939 | 8.33° C | 68% | 1020.5 hPa | 0 mm | - | 0 W/m² | - |
| 1777618635 | 8.33° C | 68% | 1020.6 hPa | 0 mm | - | 0 W/m² | - |
| 1777618330 | 8.33° C | 68% | 1020.6 hPa | 0 mm | - | 0 W/m² | - |
| 1777618027 | 8.33° C | 68% | 1020.6 hPa | 0 mm | - | 0 W/m² | - |
| 1777617723 | 8.33° C | 67% | 1020.6 hPa | 0 mm | - | 0 W/m² | - |
* Rain latest hour (hover to see other rain measurements)
** Current wind speed in m/s (hover to see current wind gust speed)